• In Uzbekistan
  • List of Countries
  • For 7 days
  • Water Temperature
  • Satellite Maps
  • Weather Map
  • Weather Widgets
  • user-avatar
    Login

    Hourly Weather Kuweit

    Today, 15 December, Friday

    Time Temperature Precipitation Wind Pressure Humidity
    00:00 +16°C° 0 mm 6 mps 758 mmHg 21%
    01:00 +15°C° 0 mm 5 mps 758 mmHg 20%
    02:00 +15°C° 0 mm 5 mps 758 mmHg 19%
    03:00 +14°C° 0 mm 6 mps 758 mmHg 16%
    04:00 +14°C° 0 mm 6 mps 758 mmHg 17%
    05:00 +13°C° 0 mm 6 mps 758 mmHg 18%
    06:00 +13°C° 0 mm 5 mps 758 mmHg 19%
    07:00 +14°C° 0 mm 5 mps 758 mmHg 18%
    08:00 +14°C° 0 mm 5 mps 759 mmHg 17%
    09:00 +15°C° 0 mm 4 mps 759 mmHg 16%
    10:00 +18°C° 0 mm 4 mps 759 mmHg 15%
    11:00 +19°C° 0 mm 4 mps 759 mmHg 13%
    12:00 +20°C° 0 mm 4 mps 759 mmHg 12%
    13:00 +21°C° 0 mm 4 mps 758 mmHg 13%
    14:00 +21°C° 0 mm 4 mps 758 mmHg 15%
    15:00 +21°C° 0 mm 3 mps 758 mmHg 17%
    16:00 +20°C° 0 mm 3 mps 758 mmHg 21%
    17:00 +20°C° 0 mm 3 mps 759 mmHg 26%
    18:00 +19°C° 0 mm 3 mps 759 mmHg 30%
    19:00 +18°C° 0 mm 3 mps 759 mmHg 34%
    20:00 +18°C° 0 mm 4 mps 759 mmHg 37%
    21:00 +17°C° 0 mm 4 mps 760 mmHg 41%
    22:00 +17°C° 0 mm 4 mps 760 mmHg 41%
    23:00 +15°C° 0 mm 4 mps 760 mmHg 41%

    Tomorrow, 16 December, Saturday

    Time Temperature Precipitation Wind Pressure Humidity
    00:00 +15°C° 0 mm 4 mps 760 mmHg 41%
    01:00 +15°C° 0 mm 4 mps 761 mmHg 44%
    02:00 +14°C° 0 mm 4 mps 761 mmHg 47%
    03:00 +14°C° 0 mm 4 mps 761 mmHg 50%
    04:00 +14°C° 0 mm 4 mps 761 mmHg 55%
    05:00 +13°C° 0 mm 4 mps 761 mmHg 61%
    06:00 +13°C° 0 mm 4 mps 761 mmHg 66%
    07:00 +14°C° 0 mm 4 mps 762 mmHg 64%
    08:00 +15°C° 0 mm 4 mps 762 mmHg 63%
    09:00 +17°C° 0 mm 4 mps 763 mmHg 62%
    10:00 +18°C° 0 mm 4 mps 763 mmHg 53%
    11:00 +20°C° 0 mm 4 mps 763 mmHg 45%
    12:00 +21°C° 0 mm 4 mps 763 mmHg 37%
    13:00 +22°C° 0 mm 4 mps 762 mmHg 35%
    14:00 +22°C° 0 mm 4 mps 762 mmHg 34%
    15:00 +22°C° 0 mm 4 mps 762 mmHg 32%
    16:00 +21°C° 0 mm 4 mps 762 mmHg 37%
    17:00 +20°C° 0 mm 3 mps 763 mmHg 42%
    18:00 +19°C° 0 mm 3 mps 763 mmHg 47%
    19:00 +18°C° 0 mm 3 mps 763 mmHg 51%
    20:00 +18°C° 0 mm 2 mps 764 mmHg 55%
    21:00 +17°C° 0 mm 2 mps 764 mmHg 58%
    22:00 +17°C° 0 mm 2 mps 764 mmHg 61%
    23:00 +16°C° 0 mm 2 mps 764 mmHg 64%

    Day after tomorrow, 17 December, Sunday

    Time Temperature Precipitation Wind Pressure Humidity
    00:00 +16°C° 0 mm 1 mps 764 mmHg 67%
    01:00 +16°C° 0 mm 1 mps 765 mmHg 67%
    02:00 +16°C° 0 mm 2 mps 765 mmHg 67%
    03:00 +16°C° 0 mm 2 mps 765 mmHg 67%
    04:00 +16°C° 0 mm 2 mps 765 mmHg 67%
    05:00 +16°C° 0 mm 3 mps 765 mmHg 67%
    06:00 +16°C° 0 mm 3 mps 765 mmHg 67%
    07:00 +17°C° 0 mm 3 mps 766 mmHg 62%
    08:00 +18°C° 0 mm 3 mps 766 mmHg 56%
    09:00 +19°C° 0 mm 3 mps 766 mmHg 50%
    10:00 +20°C° 0 mm 3 mps 766 mmHg 47%
    11:00 +21°C° 0 mm 3 mps 766 mmHg 43%
    12:00 +24°C° 0 mm 3 mps 766 mmHg 39%
    13:00 +24°C° 0 mm 3 mps 765 mmHg 37%
    14:00 +24°C° 0 mm 2 mps 765 mmHg 35%
    15:00 +24°C° 0 mm 2 mps 765 mmHg 33%
    16:00 +23°C° 0 mm 2 mps 765 mmHg 35%
    17:00 +22°C° 0 mm 1 mps 765 mmHg 36%
    18:00 +21°C° 0 mm 1 mps 765 mmHg 37%
    19:00 +20°C° 0 mm 2 mps 765 mmHg 38%
    20:00 +19°C° 0 mm 2 mps 766 mmHg 38%
    21:00 +19°C° 0 mm 2 mps 766 mmHg 39%
    22:00 +19°C° 0 mm 3 mps 766 mmHg 38%
    23:00 +18°C° 0 mm 3 mps 766 mmHg 38%

    18 December, Monday

    Time Temperature Precipitation Wind Pressure Humidity
    00:00 +18°C° 0 mm 3 mps 766 mmHg 37%
    01:00 +18°C° 0 mm 4 mps 766 mmHg 38%
    02:00 +17°C° 0 mm 4 mps 766 mmHg 39%
    03:00 +17°C° 0 mm 4 mps 766 mmHg 40%
    04:00 +17°C° 0 mm 4 mps 766 mmHg 42%
    05:00 +15°C° 0 mm 4 mps 767 mmHg 44%
    06:00 +15°C° 0 mm 4 mps 767 mmHg 46%
    07:00 +17°C° 0 mm 4 mps 767 mmHg 43%
    08:00 +18°C° 0 mm 4 mps 768 mmHg 40%
    09:00 +19°C° 0 mm 3 mps 768 mmHg 37%
    10:00 +20°C° 0 mm 3 mps 768 mmHg 35%
    11:00 +21°C° 0 mm 3 mps 767 mmHg 32%
    12:00 +22°C° 0 mm 3 mps 767 mmHg 29%
    13:00 +24°C° 0 mm 2 mps 766 mmHg 28%
    14:00 +24°C° 0 mm 2 mps 766 mmHg 27%
    15:00 +24°C° 0 mm 2 mps 765 mmHg 26%
    16:00 +23°C° 0 mm 2 mps 766 mmHg 28%
    17:00 +21°C° 0 mm 2 mps 766 mmHg 30%
    18:00 +21°C° 0 mm 1 mps 766 mmHg 32%
    19:00 +19°C° 0 mm 2 mps 766 mmHg 33%
    20:00 +19°C° 0 mm 2 mps 766 mmHg 34%
    21:00 +18°C° 0 mm 2 mps 767 mmHg 35%
    22:00 +18°C° 0 mm 2 mps 767 mmHg 36%
    23:00 +18°C° 0 mm 2 mps 767 mmHg 37%

    19 December, Tuesday

    Time Temperature Precipitation Wind Pressure Humidity
    00:00 +17°C° 0 mm 2 mps 767 mmHg 38%
    01:00 +17°C° 0 mm 2 mps 767 mmHg 39%
    02:00 +16°C° 0 mm 2 mps 767 mmHg 40%
    03:00 +16°C° 0 mm 2 mps 767 mmHg 41%
    04:00 +16°C° 0 mm 2 mps 767 mmHg 42%
    05:00 +15°C° 0 mm 2 mps 767 mmHg 42%
    06:00 +15°C° 0 mm 1 mps 767 mmHg 43%
    07:00 +18°C° 0 mm 1 mps 768 mmHg 39%
    08:00 +19°C° 0 mm 1 mps 768 mmHg 35%
    09:00 +21°C° 0 mm 1 mps 768 mmHg 32%
    10:00 +22°C° 0 mm 1 mps 768 mmHg 30%
    11:00 +23°C° 0 mm 1 mps 768 mmHg 29%
    12:00 +24°C° 0 mm 1 mps 767 mmHg 27%
    13:00 +24°C° 0 mm 1 mps 767 mmHg 26%
    14:00 +25°C° 0 mm 1 mps 767 mmHg 26%
    15:00 +25°C° 0 mm 1 mps 766 mmHg 25%
    16:00 +24°C° 0 mm 1 mps 766 mmHg 27%
    17:00 +23°C° 0 mm 1 mps 767 mmHg 30%
    18:00 +21°C° 0 mm 2 mps 767 mmHg 32%
    19:00 +20°C° 0 mm 2 mps 767 mmHg 34%
    20:00 +21°C° 0 mm 1 mps 767 mmHg 35%
    21:00 +20°C° 0 mm 1 mps 767 mmHg 37%
    22:00 +19°C° 0 mm 2 mps 767 mmHg 38%
    23:00 +19°C° 0 mm 2 mps 767 mmHg 39%

    20 December, Wednesday

    Time Temperature Precipitation Wind Pressure Humidity
    00:00 +18°C° 0 mm 2 mps 767 mmHg 39%
    01:00 +18°C° 0 mm 2 mps 767 mmHg 40%
    02:00 +18°C° 0 mm 2 mps 766 mmHg 40%
    03:00 +18°C° 0 mm 2 mps 766 mmHg 40%
    04:00 +17°C° 0 mm 2 mps 767 mmHg 40%
    05:00 +17°C° 0 mm 2 mps 767 mmHg 40%
    06:00 +17°C° 0 mm 2 mps 767 mmHg 40%
    07:00 +18°C° 0 mm 2 mps 767 mmHg 38%
    08:00 +19°C° 0 mm 2 mps 768 mmHg 35%
    09:00 +21°C° 0 mm 2 mps 768 mmHg 32%
    10:00 +23°C° 0 mm 2 mps 768 mmHg 30%
    11:00 +24°C° 0 mm 2 mps 767 mmHg 27%
    12:00 +25°C° 0 mm 2 mps 767 mmHg 25%
    13:00 +25°C° 0 mm 2 mps 767 mmHg 24%
    14:00 +26°C° 0 mm 2 mps 766 mmHg 23%
    15:00 +26°C° 0 mm 2 mps 766 mmHg 22%
    16:00 +25°C° 0 mm 2 mps 766 mmHg 26%
    17:00 +24°C° 0 mm 3 mps 766 mmHg 29%
    18:00 +22°C° 0 mm 3 mps 767 mmHg 32%
    19:00 +21°C° 0 mm 3 mps 767 mmHg 35%
    20:00 +21°C° 0 mm 3 mps 767 mmHg 38%
    21:00 +20°C° 0 mm 3 mps 767 mmHg 41%
    22:00 +20°C° 0 mm 3 mps 767 mmHg 41%
    23:00 +19°C° 0 mm 3 mps 767 mmHg 41%
    Show more